Location: ??
(35.4627°N, 139.3695°E)
Time: 05:36:52
(UTC+00:00)

Cosmos 1603 - Pass Details

Date: 25 November 2020
Orbit: 831 x 859 km, 71.0° (Epoch: 20 January)

Event Time Altitude Azimuth Distance (km) Brightness Sun altitude
Exits shadow 19:38:25 15° 347° (NNW) 2,117 5.5 -22.1°
Maximum altitude 19:43:05 64° 67° (ENE) 923 4.0 -21.2°
Drops below altitude 10° 19:48:40 10° 149° (SSE) 2,450 6.7 -20.1°
Sets 19:51:07 0° 152° (SSE) 3,385 7.4 -19.6°
